"Pseudo-MPEC" for ST22KA6

Created 2022 Nov 29 2:22:26 UT using Find_Orb

Click here for an explanation of pseudo-MPECs

 
 Astrometry: 
     ST22KA6* C2022 11 234EsO74e'2)AstrometryS\A=uB[)^+!9r^]c?KidDr5`\Tgo7A+XU68
     ST22KA6  C2022 11 238NZaWrF2fqI[6tredacted;Jrvsa\U;$$Sy/e7j:K+KCR^/p/2RyU68
     ST22KA6  C2022 11 23,VS$-L?C([G,hFpS7`clickGkM`CeI:t\FshVLGcSfa[here!.AiU68
     ST22KA6  C2022 11 23/7wwx=iKW26db7+for]Rqr;,t$M=3engbm*+rarcBexplanationU68

Station data:
(U68) JPL SynTrack Robotic Telescope, Auberry  (N37.070387 W119.412990)
   US/California.  Observers N. Saini, C. Zhai, R. Trahan, M. Zhan, M. Shao.
   0.28-m f/2.2 Schmidt + CCD.

Orbital elements:  ST22KA6
   Perihelion 2022 Dec 28.33164 +/- 35.9 TT =  7:57:33 (JD 2459941.83164)
Epoch 2022 Nov 23.0 TT = JDT 2459906.5   Earth MOID: 0.0068   AutoNEOCP
M 328.71185081 +/- 21               (J2000 ecliptic)
n   0.88555607 +/- 0.403            Peri.   40.87371 +/- 59
a   1.07396963 +/- 0.326            Node    56.63018 +/- 36
e   0.0902077 +/- 0.26              Incl.    2.73929 +/- 11
P   1.11/406.52d           H 29.6   G  0.15   U 12.1  SR
q 0.97708921 +/- 0.0969    Q 1.17085006 +/- 27.4
From 4 observations 2022 Nov. 23 (35.9 min); mean residual 0".12
Residuals in arcseconds: 
221123 U68  .14-  .06-    221123 U68  .18-  .07+    
221123 U68  .20+  .06+    221123 U68  .12+  .07-    

Ephemerides (geocentric):
Date (UTC) HH   RA             Dec           delta  r     elong  mag " sig PA
---- --------  ------------   ------------  ------ ------ -----  --- --------
2022 11 29 02  16 35 25.362   +81 51 34.71  .00831 .98847 103.3 21.8  25d 101
2022 11 29 03  16 31 59.551   +81 37 13.39  .00833 .98844 103.0 21.8  25d 102
2022 11 29 04  16 28 46.326   +81 22 51.52  .00836 .98840 102.8 21.8  25d 102
2022 11 29 05  16 25 44.632   +81 08 29.70  .00839 .98837 102.6 21.8  25d 103
2022 11 29 06  16 22 53.519   +80 54 08.46  .00842 .98833 102.3 21.9  25d 103
2022 11 29 07  16 20 12.133   +80 39 48.25  .00844 .98830 102.1 21.9  25d 103
2022 11 29 08  16 17 39.704   +80 25 29.48  .00847 .98826 101.9 21.9  25d 104
2022 11 29 09  16 15 15.537   +80 11 12.52  .00850 .98823 101.6 21.9  25d 104
2022 11 29 10  16 12 59.003   +79 56 57.68  .00853 .98819 101.4 21.9  25d 105
2022 11 29 11  16 10 49.534   +79 42 45.26  .00856 .98816 101.2 21.9  26d 105
2022 11 29 12  16 08 46.612   +79 28 35.51  .00858 .98812 101.0 21.9  26d 105
2022 11 29 13  16 06 49.768   +79 14 28.65  .00861 .98809 100.7 22.0  26d 106
2022 11 29 14  16 04 58.575   +79 00 24.89  .00864 .98805 100.5 22.0  26d 106
2022 11 29 15  16 03 12.643   +78 46 24.39  .00867 .98802 100.3 22.0  26d 107
2022 11 29 16  16 01 31.616   +78 32 27.34  .00870 .98799 100.1 22.0  26d 107
2022 11 29 17  15 59 55.169   +78 18 33.85  .00873 .98795  99.9 22.0  26d 108
2022 11 29 18  15 58 23.005   +78 04 44.07  .00876 .98792  99.6 22.0  26d 108
2022 11 29 19  15 56 54.848   +77 50 58.10  .00879 .98788  99.4 22.0  26d 109
2022 11 29 20  15 55 30.449   +77 37 16.04  .00882 .98785  99.2 22.1  26d 109
2022 11 29 21  15 54 09.575   +77 23 37.98  .00885 .98781  99.0 22.1  27d 109
2022 11 29 22  15 52 52.014   +77 10 04.01  .00888 .98778  98.8 22.1  27d 110
2022 11 29 23  15 51 37.569   +76 56 34.18  .00891 .98775  98.6 22.1  27d 110
2022 11 30 00  15 50 26.058   +76 43 08.56  .00894 .98771  98.4 22.1  27d 111
2022 11 30 01  15 49 17.313   +76 29 47.20  .00897 .98768  98.2 22.1  27d 111
2022 11 30 02  15 48 11.178   +76 16 30.14  .00900 .98764  98.0 22.1  27d 112
2022 11 30 03  15 47 07.509   +76 03 17.43  .00903 .98761  97.8 22.2  27d 112
2022 11 30 04  15 46 06.171   +75 50 09.11  .00906 .98758  97.6 22.2  27d 113
2022 11 30 05  15 45 07.040   +75 37 05.19  .00909 .98754  97.4 22.2  27d 113
2022 11 30 06  15 44 09.999   +75 24 05.71  .00912 .98751  97.2 22.2  27d 114
2022 11 30 07  15 43 14.940   +75 11 10.68  .00915 .98747  97.0 22.2  28d 114
2022 11 30 08  15 42 21.762   +74 58 20.13  .00918 .98744  96.8 22.2  28d 115
2022 11 30 09  15 41 30.370   +74 45 34.05  .00921 .98741  96.6 22.2  28d 115
2022 11 30 10  15 40 40.676   +74 32 52.47  .00924 .98737  96.4 22.3  28d 115
2022 11 30 11  15 39 52.598   +74 20 15.38  .00927 .98734  96.2 22.3  28d 116
2022 11 30 12  15 39 06.058   +74 07 42.79  .00931 .98731  96.0 22.3  28d 116
2022 11 30 13  15 38 20.984   +73 55 14.71  .00934 .98727  95.9 22.3  28d 117
2022 11 30 14  15 37 37.307   +73 42 51.13  .00937 .98724  95.7 22.3  28d 117
2022 11 30 15  15 36 54.963   +73 30 32.04  .00940 .98721  95.5 22.3  28d 118
2022 11 30 16  15 36 13.892   +73 18 17.44  .00943 .98717  95.3 22.3  29d 118
2022 11 30 17  15 35 34.038   +73 06 07.33  .00946 .98714  95.1 22.4  29d 119
2022 11 30 18  15 34 55.347   +72 54 01.69  .00950 .98711  95.0 22.4  29d 119
2022 11 30 19  15 34 17.769   +72 42 00.52  .00953 .98707  94.8 22.4  29d 119
2022 11 30 20  15 33 41.255   +72 30 03.79  .00956 .98704  94.6 22.4  29d 120
2022 11 30 21  15 33 05.762   +72 18 11.50  .00959 .98701  94.4 22.4  29d 120
2022 11 30 22  15 32 31.247   +72 06 23.64  .00963 .98697  94.3 22.4  29d 121
2022 11 30 23  15 31 57.670   +71 54 40.18  .00966 .98694  94.1 22.4  29d 121
2022 12 01 00  15 31 24.993   +71 43 01.11  .00969 .98691  93.9 22.5  30d 122
2022 12 01 01  15 30 53.180   +71 31 26.42  .00972 .98687  93.7 22.5  30d 122